DW6399 Weather Reports


time (UTC)temp
F
wind
direction
speed
knots
gust
knots
rain 1hr
in
rain 24hr
in
rain mn
in
humidity
%
barometer
mb
20260508121804 52 291 3.5 11.3 0.00 0.25 0.05 48 1023.4
20260508120904 53 186 3.5 8.7 0.00 0.25 0.05 51 1023.4
20260508120004 52 184 2.6 7.8 0.00 0.26 0.05 51 1023.3
20260508115404 51 261 2.6 7.8 0.00 0.26 0.05 49 1023.3
20260508114504 51 277 3.5 8.7 0.00 0.26 0.05 52 1023.4
20260508113604 51 277 4.3 13.0 0.00 0.26 0.05 52 1023.5
20260508112704 51 199 3.5 8.7 0.00 0.26 0.05 56 1023.4
20260508111804 50 200 3.5 9.6 0.00 0.26 0.05 58 1023.6
20260508110904 49 198 3.5 10.4 0.00 0.26 0.05 63 1023.6
20260508110004 48 267 5.2 13.0 0.00 0.26 0.05 60 1023.5
20260508105404 49 279 7.0 13.0 0.00 0.26 0.05 56 1023.5
20260508104504 50 321 7.0 12.2 0.00 0.26 0.05 55 1023.1
20260508041804 35 281 2.6 5.2 0.02 0.23 0.02 94 1019.7
20260508040904 34 298 3.5 6.1 0.02 0.23 0.02 94 1019.3
20260508040004 34 301 2.6 6.1 0.00 0.20 0.00 94 1018.5
20260508035404 33 305 3.5 5.2 0.00 0.20 0.00 94 1017.1
20260508034504 33 302 2.6 6.1 0.00 0.20 0.00 94 1020.1
20260508033604 33 292 2.6 4.3 0.00 0.20 0.00 94 1019.6
20260508032725 32 283 3.5 6.1 0.00 0.20 0.00 94 1019.4
20260508031825 32 289 2.6 5.2 0.00 0.20 0.00 94 1019.4
20260508030904 32 295 2.6 6.1 0.00 0.20 0.00 94 1019.3
20260508030004 32 299 2.6 7.0 0.00 0.20 0.00 94 1019.3
20260508025404 31 289 2.6 4.3 0.00 0.20 0.00 94 1019.3
20260508024525 31 282 2.6 5.2 0.00 0.20 0.00 94 1019.2
20260508023604 31 293 2.6 5.2 0.00 0.20 0.00 94 1019.0
20260508022704 30 301 1.7 3.5 0.00 0.20 0.00 94 1019.0
20260508021804 29 296 1.7 3.5 0.00 0.20 0.00 93 1018.9
20260508020904 29 296 0.9 1.7 0.00 0.20 0.00 93 1018.9
20260508020004 29 296 0.9 2.6 0.00 0.20 0.00 93 1018.7
20260508015404 30 296 0.9 2.6 0.00 0.20 0.00 93 1018.6
20260508014504 30 296 1.7 2.6 0.00 0.20 0.00 93 1018.6
20260508013625 31 296 1.7 3.5 0.00 0.20 0.00 93 1018.6
20260508012704 31 307 1.7 3.5 0.00 0.20 0.00 94 1018.5
20260508011804 31 307 2.6 3.5 0.00 0.20 0.00 94 1018.4
20260508010904 31 303 2.6 5.2 0.00 0.20 0.00 94 1018.3
20260508010025 32 304 2.6 6.1 0.00 0.20 0.00 94 1018.2
20260508005404 32 298 2.6 6.1 0.00 0.20 0.00 94 1018.2
20260508004525 32 290 2.6 6.1 0.00 0.20 0.00 94 1018.2
20260508003604 31 290 2.6 5.2 0.00 0.20 0.00 93 1018.0
20260508002704 31 302 2.6 5.2 0.00 0.20 0.00 94 1018.1
20260508001825 31 306 2.6 3.5 0.00 0.20 0.00 94 1018.0
20260508000925 32 307 2.6 4.3 0.00 0.20 0.00 93 1017.9
20260508000004 32 316 2.6 4.3 0.00 0.20 0.00 93 1017.8
20260507235404 32 319 2.6 4.3 0.00 0.20 0.00 93 1017.8
20260507234525 32 308 3.5 6.1 0.00 0.20 0.00 93 1017.7
20260507233625 32 304 3.5 7.0 0.00 0.20 0.00 93 1017.6
20260507232726 32 296 3.5 7.0 0.00 0.20 0.00 93 1017.5
20260507231825 32 296 3.5 6.1 0.00 0.20 0.00 94 1017.4
20260507230904 32 292 2.6 6.1 0.00 0.20 0.00 93 1017.4
20260507230004 31 286 2.6 3.5 0.00 0.20 0.00 93 1017.4
20260507225425 31 286 2.6 5.2 0.00 0.20 0.00 93 1017.3
20260507224504 32 283 2.6 3.5 0.00 0.20 0.00 93 1017.1
20260507223624 31 308 1.7 3.5 0.00 0.20 0.00 93 1017.0
20260507222704 32 308 2.6 3.5 0.00 0.20 0.00 93 1017.0
20260507221824 32 308 2.6 4.3 0.00 0.20 0.00 93 1016.9
20260507220904 31 313 2.6 3.5 0.00 0.20 0.00 93 1016.8
20260507220004 32 315 1.7 3.5 0.00 0.20 0.00 93 1016.6
20260507215425 32 315 2.6 3.5 0.00 0.20 0.00 93 1016.6
20260507214503 32 315 1.7 3.5 0.00 0.20 0.00 93 1016.5
20260507213625 33 315 2.6 3.5 0.00 0.20 0.00 93 1016.5
20260507212704 33 315 2.6 4.3 0.00 0.20 0.00 93 1016.4
20260507211804 33 316 0.9 4.3 0.00 0.20 0.00 93 1016.3
20260507210924 33 0 0.0 0.0 0.00 0.20 0.00 93 1016.2
20260507210006 33 0 0.0 0.0 0.01 0.20 0.00 93 1016.1
20260507205404 33 0 0.0 0.0 0.01 0.20 0.20 93 1016.1
20260507204504 33 300 0.9 1.7 0.03 0.20 0.20 93 1016.0
20260507203625 33 300 1.7 2.6 0.05 0.20 0.20 92 1016.0
20260507202703 33 300 1.7 2.6 0.07 0.20 0.20 92 1015.9
20260507201804 33 304 1.7 3.5 0.09 0.20 0.20 92 1015.8
20260507200904 33 334 0.9 2.6 0.10 0.20 0.20 92 1015.8
20260507200004 33 334 1.7 2.6 0.09 0.19 0.20 92 1015.7
20260507195403 33 334 2.6 4.3 0.10 0.19 0.19 92 1015.7
20260507194504 33 335 3.5 5.2 0.08 0.17 0.17 92 1015.7
20260507193603 33 334 4.3 7.8 0.06 0.15 0.15 92 1015.6
20260507192704 33 330 4.3 7.8 0.05 0.13 0.13 92 1015.5
20260507191803 34 327 4.3 7.0 0.03 0.11 0.11 92 1015.4
20260507190904 34 328 4.3 7.8 0.03 0.10 0.10 92 1015.4
20260507190025 34 333 6.1 8.7 0.04 0.10 0.10 92 1015.4
20260507185403 33 331 6.1 8.7 0.04 0.09 0.09 92 1015.3
20260507184504 33 332 6.1 9.6 0.06 0.09 0.09 92 1015.3
20260507183603 33 326 6.1 8.7 0.06 0.09 0.09 91 1015.2
20260507182703 33 322 5.2 8.7 0.05 0.08 0.08 91 1015.2
20260507181803 33 320 6.1 10.4 0.05 0.08 0.08 90 1015.1
20260507180903 33 319 7.0 9.6 0.05 0.07 0.07 90 1015.2
20260507180025 34 315 5.2 8.7 0.04 0.06 0.06 89 1015.2
20260507175404 34 308 4.3 8.7 0.03 0.05 0.05 89 1015.2
20260507174503 34 297 3.5 7.0 0.01 0.03 0.03 87 1015.1
20260507173604 36 276 2.6 7.8 0.01 0.03 0.03 84 1015.1
20260507172703 38 240 1.7 7.0 0.01 0.03 0.03 83 1015.0
20260507171825 40 213 2.6 7.8 0.01 0.03 0.03 81 1014.9
20260507170903 41 295 0.9 3.5 0.00 0.02 0.02 80 1014.6
20260507170004 41 359 1.7 3.5 0.00 0.02 0.02 79 1014.2
20260507165404 41 7 1.7 3.5 0.00 0.02 0.02 78 1014.0
20260507164504 42 18 1.7 6.1 0.00 0.02 0.02 76 1014.0
20260507163603 43 56 1.7 7.8 0.00 0.02 0.02 75 1013.8
20260507162704 43 54 1.7 6.1 0.00 0.02 0.02 73 1013.7
20260507161803 44 67 1.7 6.1 0.00 0.02 0.02 72 1013.5
20260507160904 44 15 0.9 3.5 0.00 0.02 0.02 70 1013.4
20260507160004 44 349 0.9 3.5 0.00 0.02 0.02 69 1013.4
20260507155404 44 353 0.9 4.3 0.00 0.02 0.02 69 1013.3
20260507154504 45 24 0.9 4.3 0.00 0.02 0.02 67 1013.4
20260507153604 45 61 0.9 2.6 0.00 0.02 0.02 66 1013.4
20260507152703 45 61 0.0 3.5 0.00 0.02 0.02 65 1013.3
20260507151803 45 61 0.9 3.5 0.00 0.02 0.02 63 1013.4
20260507150925 46 88 1.7 3.5 0.00 0.02 0.02 63 1013.5
20260507150004 46 88 1.7 6.1 0.00 0.02 0.02 64 1013.5
20260507145404 46 132 1.7 4.3 0.00 0.02 0.02 66 1013.5
20260507144504 46 142 2.6 6.1 0.00 0.02 0.02 67 1013.5
20260507143603 46 133 2.6 7.0 0.00 0.02 0.02 69 1013.6
20260507142724 45 144 2.6 7.0 0.00 0.02 0.02 69 1013.6
20260507141803 44 146 1.7 5.2 0.00 0.02 0.02 72 1013.6
20260507140903 43 207 0.9 3.5 0.00 0.02 0.02 72 1013.6
20260507140025 42 303 0.9 3.5 0.00 0.02 0.02 75 1013.6
20260507135403 42 333 2.6 3.5 0.00 0.02 0.02 73 1013.6
20260507134503 41 333 5.2 8.7 0.00 0.02 0.02 78 1013.6
20260507133604 40 316 7.0 11.3 0.00 0.02 0.02 78 1014.0
20260507132703 40 311 7.0 10.4 0.00 0.02 0.02 79 1014.2
20260507131803 41 316 5.2 9.6 0.01 0.02 0.02 80 1014.1
20260507130903 41 327 5.2 9.6 0.01 0.02 0.02 80 1014.0
20260507130025 41 335 3.5 7.0 0.02 0.02 0.02 81 1014.1
20260507125403 42 346 2.6 7.8 0.02 0.02 0.02 81 1014.0
20260507124503 42 318 5.2 8.7 0.02 0.02 0.02 85 1013.9
20260507123604 41 331 6.1 11.3 0.02 0.02 0.02 83 1014.0
20260507122705 40 318 6.1 11.3 0.02 0.02 0.02 84 1014.2